Regional Weather Roundup
Issued by NWS Bismarck, ND

Home | Current Version | Previous Version | Text Only | Print | Product List | Glossary On
Versions: 1 2 3 4 5 6 7 8 9 10 11 12 13 14 15 16 17 18 19 20 21 22 23 24 25 26 27 28 29 30 31 32 33 34 35 36 37 38 39 40 41 42 43 44 45 46 47 48 49 50
000
ASUS43 KBIS 270120
RWRBIS

NWR BROADCAST TEXT
NATIONAL WEATHER SERVICE BISMARCK ND
700 PM CST THU FEB 26 2015

NOTE: "FAIR" INDICATES FEW OR NO CLOUDS BELOW 12,000 FEET WITH NO
SIGNIFICANT WEATHER AND/OR OBSTRUCTIONS TO VISIBILITY.


CITY           SKY/WX    TMP DP  RH WIND       PRES   REMARKS
WILLISTON      CLEAR     -1  -9  68 NW3       30.50F
MINOT          CLEAR      0 -10  63 W8        30.51S WCI -14
MINOT AFB      CLEAR     -6 -12  75 W10       30.51S WCI -23
BISMARCK       CLEAR      4  -6  63 N9        30.53S WCI -10
DICKINSON      CLEAR      5  -6  60 N5        30.42S WCI  -4
GARRISON         N/A     -3  -9  75 W6        30.50S WCI -15
HETTINGER ARPT CLEAR      5  -4  66 N5        30.43S WCI  -4
JAMESTOWN      CLEAR     -3 -11  68 NW8       30.49F WCI -18
BEACH          FAIR       9  -4  56 CALM      30.42F
CARRINGTON     FAIR      -2  -9  71 MISG      30.50S
CROSBY         FAIR      -4  -9  77 CALM      30.51F
HARVEY         FAIR      -4  -9  77 NW12      30.50S WCI -22
HAZEN          FAIR       1  -8  66 W3        30.53S
LINTON         FAIR       3  -4  72 NW5       30.51S WCI  -6
MANDAN         FAIR       1  -8  66 N7        30.51S WCI -11
OAKES            N/A      0  -8  71 NW10      30.52F WCI -17
RUGBY          FAIR      -4 -11  71 W10       30.49F WCI -21
TIOGA          FAIR      -4  -8  84 N3        30.50S
WATFORD CITY   FAIR       0  -8  71 E3        30.47F
$$

CITY           SKY/WX    TMP DP  RH WIND       PRES   REMARKS
GRAND FORKS    CLEAR      0  -9  65 NW6       30.52R WCI -12
GRAND FORKS AF CLEAR      1  -8  65 NW5       30.52R WCI  -8
DEVILS LAKE    CLEAR    N/A N/A N/A MISG        N/A
FARGO          CLEAR      3  -6  66 W8        30.52F WCI -10
CANDO          FAIR      -6 -11  77 W3        30.48F
CAVALIER       FAIR       0  -8  71 W9        30.50S WCI -16
GWINNER        CLEAR      3  -8  60 NW12      30.53F WCI -13
ROLLA          FAIR       0 -11  60 W8        30.44R WCI -15
WALHALLA         N/A      1  -9  60 W5        30.50S WCI  -8
$$

CITY           SKY/WX    TMP DP  RH WIND       PRES   REMARKS
ABERDEEN       CLEAR      0  -9  65 NW7       30.55S WCI -13
MOBRIDGE       CLEAR      1  -8  66 N7        30.49S WCI -12
BUFFALO          N/A      7  -5  57 N6        30.33S WCI  -3
RAPID CITY     CLEAR      0  -8  69 NW8       30.39S WCI -14
GLASGOW        CLEAR      8  -5  55 SE8       30.42F WCI  -4
SIDNEY         CLEAR     10  -8  44 CALM      30.52S
WOLF POINT     CLEAR     13  -4  46 CALM      30.47F
GLENDIVE       CLEAR     10  -6  48 CALM      30.44S
MILES CITY     CLEAR      9  -1  64 S7        30.41F WCI  -2
BAKER          CLEAR      7  -4  60 CALM      30.40F
$$

CITY           SKY/WX    TMP DP  RH WIND       PRES   REMARKS
BILLINGS       PTCLDY    11   0  61 SE10      30.26F WCI  -3
GREAT FALLS    CLEAR     13   5  70 E12       30.14F WCI  -1
REGINA         CLEAR     -6  -9  84 S6        30.48F WCI -18
ESTEVAN        CLEAR     -9 -15  77 W6        30.50F WCI -23
$$




USA.gov is the U.S. government's official web portal to all federal, state and local government web resources and services.